Wind_Speed
6 6 9 8 4 1 11 14 12 6 17 13 14 14 19 12 6 13 28 31 27 24 21 19 19 17 16 16 16 15 15 14 13 13 13 11 11 9 8 9 9 9 8 8 9 9 10 9 10
8 8 7 5 4 11 12 15 15 14 12 12 15 22 11 19 20 23 23 28 27 24 21 19 19 18 17 16 15 14 13 13 12 11 12 10 9 9 8 9 9 9 8 9 9 9 9 9 9
9 11 7 5 10 8 11 13 12 11 10 8 10 14 15 21 22 18 29 30 26 25 23 20 20 17 16 16 14 13 12 11 12 11 10 8 8 8 8 9 9 8 7 8 8 7 8 8 8
9 8 6 4 13 15 12 10 28 15 14 7 18 12 21 19 25 29 28 27 27 25 22 21 21 18 18 15 14 12 11 10 10 10 9 8 8 9 8 8 8 7 7 8 7 7 6 6 7
14 7 2 8 14 14 9 6 17 16 16 16 23 20 18 19 27 25 25 22 31 26 22 20 18 18 18 16 13 12 10 9 9 8 9 7 7 7 8 8 6 7 6 6 6 5 5 5 5
7 5 5 6 17 14 12 7 3 17 16 17 19 15 13 23 25 23 23 20 29 24 21 19 18 17 15 14 12 11 9 9 9 8 8 7 6 7 7 6 5 4 5 5 4 4 4 4 3
11 8 16 16 13 15 8 15 14 14 15 14 19 16 14 19 23 21 22 21 23 22 20 17 16 14 15 13 12 9 9 7 8 7 6 7 6 5 4 5 5 4 4 4 4 4 4 4 4
3 6 7 10 13 12 11 7 16 14 12 10 17 11 17 20 23 20 21 20 21 26 19 17 16 13 13 13 11 10 8 7 6 6 5 5 5 5 4 4 4 4 4 4 4 5 4 5 6
18 5 8 12 16 10 5 12 9 12 6 11 4 16 23 26 24 23 23 20 21 24 22 18 16 14 17 15 13 11 8 7 7 6 6 5 4 4 5 6 5 3 3 4 5 6 7 8 9
8 3 12 8 11 12 8 10 8 8 9 6 18 23 27 26 22 21 23 20 18 19 25 20 22 17 20 17 14 12 10 8 7 8 8 6 6 4 5 7 5 5 4 6 6 7 9 11 12
4 7 10 12 9 13 7 9 3 8 9 12 17 19 20 21 20 17 23 22 19 18 18 20 24 17 19 18 14 17 15 16 11 12 6 8 7 8 9 8 7 6 6 5 9 8 9 11 13
3 2 6 9 1 4 11 4 12 10 5 15 17 19 19 18 17 17 17 22 20 18 17 17 19 20 19 20 17 13 17 20 17 13 10 8 7 8 4 6 7 6 7 7 11 10 12 12 12
16 2 10 8 5 7 4 6 9 8 10 14 17 18 19 17 17 20 18 18 23 16 13 19 18 16 6 7 6 10 15 7 14 10 8 14 9 10 4 6 9 6 7 9 12 12 13 14 13
8 8 5 7 11 5 4 6 4 10 11 14 16 17 17 17 17 18 19 21 20 19 17 14 14 14 11 9 4 4 2 10 7 14 10 12 7 6 5 6 5 6 7 9 10 13 13 16 12
4 10 7 9 11 12 16 8 10 15 10 14 16 16 17 16 18 17 17 20 18 18 20 17 15 15 14 12 8 5 5 8 7 12 13 4 3 4 7 7 8 7 4 7 8 10 12 14 12
10 14 8 7 13 13 9 1 22 15 12 14 15 14 15 16 17 17 16 20 18 19 23 17 16 20 16 14 13 11 8 10 7 5 4 4 5 9 7 8 10 4 7 6 7 10 10 8 11
15 11 5 14 15 15 11 7 27 20 19 15 15 14 14 15 16 18 18 17 19 15 22 16 15 19 20 15 13 12 12 11 7 9 5 5 4 15 8 9 5 8 7 7 9 8 11 9 5
15 7 17 12 12 8 13 22 24 23 19 16 16 15 14 15 17 21 20 21 20 15 17 19 17 12 21 18 14 12 11 11 12 10 6 8 4 4 1 4 7 6 5 4 7 7 9 10 9
17 20 23 14 3 3 8 11 17 17 18 18 17 16 16 17 18 25 23 23 25 19 18 18 18 15 20 18 16 14 16 16 9 3 8 16 4 4 2 5 8 7 11 11 6 8 12 14 16
22 15 13 8 17 17 9 12 13 18 17 17 18 19 18 17 19 20 23 26 28 27 21 20 18 18 17 17 17 18 17 8 5 6 11 3 2 3 5 6 8 9 8 11 10 9 12 14 13
20 16 10 10 9 18 18 16 17 9 19 28 14 20 20 19 19 20 22 23 27 31 29 25 22 18 20 17 18 13 6 7 3 5 1 1 1 3 6 5 6 7 10 10 12 13 12 13 13
19 13 11 18 12 11 14 13 9 9 14 21 19 15 21 21 20 21 22 25 26 26 32 30 27 23 21 20 14 15 12 9 10 7 4 4 4 5 5 4 6 5 8 9 11 12 13 16 15
13 16 15 18 16 18 16 10 7 19 8 2 26 26 18 21 21 20 22 29 27 28 26 26 29 25 22 22 16 15 14 16 12 11 9 7 7 6 9 6 5 5 7 9 8 9 14 14 15
14 16 19 18 11 12 16 16 5 13 13 21 19 13 37 23 21 20 22 28 25 28 28 28 29 28 24 22 19 14 14 16 9 14 9 6 10 11 10 7 6 7 9 7 7 9 9 13 10
16 14 12 11 12 12 19 16 11 12 18 12 16 29 19 20 21 19 17 18 25 28 28 28 29 26 28 21 19 18 15 14 9 10 10 11 12 14 12 8 7 8 8 6 6 5 9 11 11
16 14 12 13 13 16 20 10 7 14 10 16 15 15 10 15 18 19 17 14 27 29 29 28 28 26 25 24 20 18 16 15 9 9 8 19 16 18 13 10 8 7 6 5 7 3 6 9 12
15 14 15 18 20 15 10 1 7 8 6 22 13 14 9 5 16 18 19 20 28 27 28 28 30 27 26 23 21 20 19 17 17 16 19 16 17 16 13 11 8 6 4 4 7 6 6 9 11
12 17 13 10 15 16 15 4 3 3 13 24 10 13 9 11 15 18 17 21 28 27 28 27 28 27 28 27 24 21 19 17 11 17 14 17 21 19 14 10 7 4 5 5 7 9 11 11 10
10 13 15 13 11 11 11 4 12 16 6 11 13 24 16 9 8 12 14 21 28 29 29 27 29 27 28 27 27 24 20 17 13 13 15 21 17 16 13 9 7 6 6 6 6 7 11 11 12
11 12 13 10 13 13 13 5 6 14 8 13 17 16 18 11 27 10 15 20 25 26 28 27 30 28 28 27 26 24 24 23 20 18 16 18 18 16 13 12 11 8 6 6 7 8 9 10 11
Wind_Direction
187 210 239 275 246 167 92 83 122 47 69 60 95 68 58 89 110 107 149 122 127 131 133 129 130 126 125 124 123 119 114 114 115 109 101 102 102 109 109 99 94 95 87 97 91 87 91 92 91
212 258 252 277 261 70 65 66 58 62 73 105 66 75 75 86 108 125 117 126 130 132 133 132 130 127 125 127 123 120 117 117 113 105 103 106 113 106 101 93 90 94 94 92 90 89 92 95 98
227 254 269 236 55 26 79 59 99 80 45 87 88 55 98 115 123 117 129 131 133 136 130 136 137 131 129 126 124 122 119 117 118 110 110 114 117 113 98 94 92 87 87 94 91 98 99 109 110
254 204 263 76 61 74 71 76 347 115 104 55 107 80 100 108 113 126 133 131 137 122 129 132 137 131 128 121 122 123 119 119 117 117 120 113 104 102 103 95 93 99 91 100 98 100 99 111 105
248 294 63 44 65 87 62 34 153 85 53 50 99 106 108 96 122 132 133 137 127 124 131 130 129 132 127 132 133 130 127 124 115 106 133 121 110 110 107 105 102 114 107 110 116 114 108 106 120
349 161 97 264 75 64 73 35 171 95 98 96 103 118 107 120 134 140 142 140 120 127 134 135 136 136 139 141 140 139 138 131 122 120 124 131 123 115 116 125 119 126 129 131 136 138 140 148 153
189 314 96 76 72 70 22 47 37 93 102 109 113 119 131 137 140 149 141 145 123 134 136 141 145 146 147 146 143 145 141 137 131 134 130 142 139 136 138 145 147 148 148 155 153 165 179 193 202
327 148 104 117 80 68 72 63 47 78 82 102 115 139 152 144 150 152 141 137 142 134 141 148 145 151 152 153 153 148 148 145 151 154 157 166 166 167 151 171 160 176 184 191 196 201 221 226 235
20 328 58 33 91 94 69 80 57 105 103 55 113 147 144 149 157 160 149 138 145 142 149 158 156 161 161 157 150 151 152 152 165 181 177 188 200 247 204 196 236 222 203 211 220 233 240 244 248
142 65 71 15 70 105 79 82 131 114 129 115 86 116 141 157 164 162 151 144 160 145 155 160 166 160 175 163 159 151 170 175 179 196 202 200 175 220 198 217 242 239 228 235 236 245 248 256 260
18 58 69 63 358 65 127 81 118 167 127 135 133 140 152 162 168 173 154 153 161 155 171 156 160 150 156 161 161 181 185 192 194 186 221 200 186 217 208 215 232 256 242 232 246 247 258 256 269
107 32 66 86 4 84 64 153 68 55 50 118 139 149 159 167 174 173 170 157 149 170 158 180 153 150 160 164 175 178 203 193 179 191 202 198 241 237 212 281 243 220 254 228 241 234 258 260 256
343 21 116 117 179 107 153 55 101 97 97 119 138 154 163 174 175 176 170 156 150 184 176 161 143 155 170 156 211 197 177 179 154 174 174 229 215 234 208 237 243 228 240 245 252 260 258 255 265
200 270 116 173 135 145 152 81 34 130 126 134 148 161 168 178 180 170 171 158 161 180 176 175 157 161 182 193 255 280 177 159 197 187 221 203 232 233 284 230 264 295 270 244 258 252 251 261 265
254 257 243 181 175 155 85 7 314 300 147 154 162 171 171 180 180 168 176 160 172 180 169 175 182 169 183 191 214 235 245 230 208 227 199 150 263 296 287 298 302 317 289 256 288 288 265 263 263
247 256 243 165 261 128 114 230 286 260 198 172 171 176 171 175 177 168 178 160 172 178 161 178 187 169 181 190 187 208 234 264 237 233 151 163 314 316 288 293 300 352 336 47 8 344 329 303 265
228 233 218 234 217 153 150 100 275 256 222 180 177 180 172 175 173 168 176 164 162 180 157 180 187 177 174 189 194 223 235 233 249 246 226 266 277 233 252 289 348 340 20 22 359 347 347 340 305
86 13 301 312 138 182 260 173 206 217 194 182 183 178 179 180 179 169 180 170 158 171 162 180 179 191 169 178 197 216 237 234 245 266 288 305 187 185 263 344 359 25 359 25 348 332 324 305 292
287 182 185 223 129 258 267 296 171 174 197 181 184 180 187 189 182 171 191 172 158 168 177 182 182 188 165 173 188 219 224 228 236 239 1 253 204 165 83 18 1 8 5 344 357 352 338 319 298
263 268 274 18 29 347 260 276 150 194 197 192 183 181 191 187 183 175 187 176 165 168 179 180 192 187 187 194 198 210 225 205 193 204 213 218 232 65 44 35 34 27 347 51 32 4 2 346 29
262 260 292 270 158 222 262 256 248 136 67 303 203 185 185 190 192 183 179 196 179 173 175 180 189 192 195 204 209 232 243 174 164 189 209 295 174 71 86 53 27 11 356 33 26 33 24 351 353
257 264 267 279 281 249 300 305 189 119 120 269 335 217 185 189 191 187 185 188 190 180 177 181 183 188 191 212 211 210 218 238 243 227 191 126 115 101 80 89 62 15 22 48 36 23 20 14 358
274 282 273 275 265 273 261 258 34 119 166 110 295 300 201 182 189 197 187 181 194 181 179 174 181 186 195 205 220 196 210 219 197 160 129 139 151 139 118 88 72 56 61 58 57 41 36 26 20
269 260 264 272 281 284 280 274 204 158 187 183 198 316 275 175 186 188 196 175 178 174 174 175 175 186 192 197 219 212 217 230 187 167 143 179 161 145 119 109 95 77 77 66 39 38 43 36 23
243 246 250 241 240 246 252 254 63 117 156 175 219 207 189 181 178 182 191 171 166 164 166 168 171 180 192 196 202 212 219 223 177 148 193 195 181 142 134 127 98 94 74 49 21 11 36 30 10
226 239 248 247 257 264 240 258 137 179 240 262 219 222 151 166 177 182 178 172 157 160 163 163 171 179 186 192 194 201 202 208 196 187 80 265 140 129 137 121 103 98 84 39 357 29 38 30 15
258 233 254 277 282 280 278 203 340 344 201 278 231 86 53 240 178 178 169 175 152 156 160 164 171 178 181 184 186 191 197 202 202 159 161 141 133 137 135 128 119 107 97 66 354 41 53 40 21
247 272 240 222 262 278 288 92 43 45 280 269 164 101 88 42 271 171 171 173 152 160 166 170 171 178 177 179 182 185 195 201 182 159 155 140 136 139 139 131 101 74 82 56 21 26 41 36 27
210 247 264 289 293 258 265 110 195 154 115 335 302 133 145 138 241 202 170 161 157 167 171 172 167 179 183 178 178 181 188 190 183 172 153 146 139 138 138 136 122 105 88 53 39 28 50 44 37
263 235 232 253 256 265 289 332 128 123 175 236 281 118 155 162 200 165 158 160 162 166 167 170 170 179 186 178 180 179 183 186 184 177 166 156 148 144 139 134 132 107 69 66 72 60 52 51 41
Height
728 728 728 725 747 727 747 743 725 732 725 715 721 735 743 749 764 784 763 770 779 786 790 794 796 798 800 802 804 807 808 810 812 812 812 815 817 820 822 821 821 821 821 821 821 821 822 824 826
730 728 726 724 749 749 747 724 733 725 719 716 721 741 756 756 747 751 762 773 780 786 791 794 797 799 802 804 806 808 810 812 813 813 815 818 820 821 822 822 823 823 824 823 823 823 823 825 827
727 724 728 732 730 756 751 726 724 719 714 716 729 733 743 759 751 755 767 774 781 786 791 794 797 801 803 804 807 810 812 814 814 816 818 820 821 822 823 823 824 825 825 825 825 824 824 825 827
720 715 716 730 742 728 727 719 748 717 718 717 726 751 746 751 754 762 768 774 780 787 793 796 797 800 803 805 808 811 814 816 816 818 820 822 822 823 824 825 825 826 827 827 827 827 827 827 828
716 710 751 738 735 726 716 707 713 721 725 725 731 755 756 753 760 766 770 774 778 787 794 797 799 801 803 807 810 813 815 816 818 819 821 823 824 824 825 826 827 827 828 828 829 829 829 829 829
731 729 756 782 737 723 716 709 726 720 728 736 745 753 758 757 762 767 769 774 779 788 795 799 801 803 805 808 811 813 815 817 818 820 821 822 823 824 825 826 827 828 829 829 830 830 830 830 830
732 724 737 738 740 738 727 709 717 721 729 736 737 761 758 760 764 766 769 773 779 789 796 800 803 805 807 810 812 815 816 817 818 819 821 822 823 824 825 826 826 827 829 829 830 830 830 830 830
702 722 729 731 742 749 722 718 716 724 737 722 731 762 765 759 764 767 770 774 780 788 797 801 804 807 809 811 813 815 816 818 819 820 821 822 822 823 824 825 826 827 828 829 829 829 830 829 830
703 732 738 734 738 740 718 729 724 721 730 728 725 739 748 758 762 764 769 776 780 786 794 800 804 807 809 811 812 814 816 817 818 819 820 822 822 821 822 823 824 825 826 828 829 829 829 829 828
715 732 733 716 713 726 723 727 727 732 736 738 736 740 751 757 760 761 767 775 779 785 790 794 798 802 807 810 810 813 815 815 816 818 819 820 820 820 822 821 822 822 824 826 827 827 828 828 828
707 729 715 717 715 710 720 724 715 731 737 733 744 746 752 756 760 761 764 773 778 785 786 791 797 800 803 809 809 810 812 813 814 815 816 816 817 817 817 818 819 820 821 823 824 825 826 826 826
726 708 710 714 715 715 723 716 727 729 730 724 734 742 750 755 758 761 763 770 777 783 786 792 794 798 802 803 806 809 810 810 811 813 815 816 815 813 817 823 818 817 819 821 822 822 823 823 822
716 708 705 711 715 714 715 724 729 731 724 727 735 743 749 753 756 759 762 769 776 783 785 789 793 797 801 803 805 807 807 808 810 813 814 815 811 812 821 807 818 814 817 819 819 819 819 820 820
709 706 708 707 712 714 722 728 723 728 725 733 738 744 747 750 753 757 761 768 775 782 785 788 793 797 802 804 805 806 806 807 807 808 810 810 812 811 813 814 810 810 813 814 817 818 817 817 818
703 719 712 710 708 718 723 754 752 740 729 736 739 741 743 747 751 755 760 767 774 781 784 788 793 797 802 805 807 807 807 806 804 804 808 812 816 814 813 811 810 809 807 811 814 814 814 814 814
717 713 736 718 712 711 722 780 742 728 731 737 738 739 741 744 749 755 759 765 773 777 780 786 791 794 801 804 805 807 806 803 802 804 810 813 814 816 815 812 808 807 807 809 812 812 812 811 812
717 739 733 729 703 712 726 785 753 733 728 733 735 737 739 743 746 753 758 764 771 776 779 785 789 792 796 801 803 804 803 801 800 804 810 811 809 810 815 811 809 808 805 808 809 811 812 810 809
755 762 752 734 711 711 718 757 731 722 720 727 730 734 737 741 743 750 756 762 769 775 779 784 788 790 792 798 801 802 800 799 802 809 815 813 816 808 810 811 808 805 805 807 808 810 809 807 807
716 743 754 739 702 718 721 716 709 711 710 718 723 730 734 736 738 745 752 757 765 774 778 782 786 789 792 795 798 799 797 799 805 806 815 805 817 810 803 806 805 804 806 807 808 808 806 805 803
713 722 721 710 713 723 719 721 711 701 709 704 709 721 728 730 733 739 747 753 760 769 776 780 784 788 791 794 796 796 796 799 804 802 808 810 811 803 798 802 804 806 807 808 808 807 806 805 804
716 719 719 721 730 721 716 725 709 707 720 734 699 702 714 723 727 732 740 747 754 763 770 776 782 786 790 793 795 795 796 797 802 803 803 803 801 797 799 803 807 808 809 809 810 809 808 806 805
728 700 711 716 725 747 706 749 720 727 736 728 739 704 707 715 719 722 730 740 748 756 764 770 777 782 786 790 792 794 795 795 797 798 799 799 798 799 802 806 808 809 810 810 811 811 809 808 807
721 701 709 712 721 720 721 733 733 741 759 755 744 744 702 707 711 714 719 730 739 749 758 766 773 778 783 787 788 791 794 794 793 794 794 796 799 801 803 806 809 810 811 812 812 812 812 811 810
703 714 715 714 721 752 724 726 719 749 746 742 734 744 732 697 700 707 712 721 731 742 751 759 767 773 779 783 786 789 790 791 792 796 801 804 806 805 805 807 809 811 812 813 813 813 812 812 811
711 727 757 764 757 760 711 722 739 739 733 715 700 708 684 683 690 699 707 714 725 736 745 754 762 769 775 780 784 786 788 790 795 800 800 804 806 809 808 808 809 811 813 814 814 813 813 812 812
719 723 750 779 764 740 697 729 740 718 715 709 683 671 670 678 683 693 702 708 720 731 740 749 757 764 771 776 781 784 786 790 796 799 802 803 803 806 808 809 809 812 813 813 813 813 812 812 812
720 730 708 732 720 734 717 743 716 703 703 682 674 675 683 677 678 688 698 708 717 727 736 744 753 761 768 774 778 780 783 788 792 796 798 800 799 805 809 808 808 811 812 812 812 812 812 812 813
712 698 732 726 768 770 731 740 751 729 729 698 678 687 686 694 681 682 690 703 714 724 733 741 751 759 765 769 774 777 780 784 789 793 796 797 800 804 806 806 808 811 811 812 813 814 813 814 814
717 726 717 712 720 747 751 760 717 723 709 711 676 684 691 704 693 681 683 697 710 718 727 738 748 756 761 765 769 773 778 782 785 790 792 794 797 799 800 803 807 809 811 811 812 814 814 815 815
697 707 711 739 744 720 720 731 690 692 697 687 679 670 676 668 691 677 683 694 705 715 724 734 743 752 758 761 767 770 774 776 779 783 787 790 792 795 798 802 805 807 810 812 812 814 815 815 816